GW5348 Weather Reports


time (UTC)temp
C
wind
direction
speed
KPH
gust
KPH
rain 1hr
cm
rain 24hr
cm
rain mn
cm
humidity
%
barometer
mb
20260506140952 24 304 0.0 3.2 0.00 0.00 0.00 33 1015.0
20260506140451 24 306 1.6 3.2 0.00 0.00 0.00 33 1015.0
20260506135951 24 346 1.6 3.2 0.00 0.00 0.00 34 1015.0
20260506135451 25 318 3.2 3.2 0.00 0.00 0.00 34 1015.0
20260506134951 25 349 3.2 3.2 0.00 0.00 0.00 33 1015.0
20260506134451 25 292 1.6 3.2 0.00 0.00 0.00 34 1015.0
20260506133953 25 317 1.6 4.8 0.00 0.00 0.00 33 1015.0
20260506133452 25 317 0.0 3.2 0.00 0.00 0.00 33 1015.0
20260506132951 25 320 0.0 3.2 0.00 0.00 0.00 33 1015.0
20260506132451 25 311 1.6 3.2 0.00 0.00 0.00 32 1015.0
20260506131951 25 302 0.0 3.2 0.00 0.00 0.00 32 1015.0
20260506131452 25 301 3.2 3.2 0.00 0.00 0.00 32 1016.0
20260506130516 25 25 0.0 3.2 0.00 0.00 0.00 32 1016.0
20260506125951 25 324 1.6 3.2 0.00 0.00 0.00 31 1016.0
20260506125451 25 293 0.0 3.2 0.00 0.00 0.00 31 1016.0
20260506124951 25 318 3.2 4.8 0.00 0.00 0.00 32 1016.0
20260506124451 25 328 0.0 3.2 0.00 0.00 0.00 33 1016.0
20260506123951 25 308 1.6 3.2 0.00 0.00 0.00 33 1016.0
20260506123451 25 352 0.0 3.2 0.00 0.00 0.00 33 1016.0
20260506122952 25 317 1.6 3.2 0.00 0.00 0.00 32 1016.0
20260506122451 25 314 0.0 3.2 0.00 0.00 0.00 33 1016.0
20260506121951 25 243 0.0 3.2 0.00 0.00 0.00 33 1016.0
20260506121451 25 269 0.0 3.2 0.00 0.00 0.00 33 1016.0
20260506120951 25 296 0.0 3.2 0.00 0.00 0.00 34 1016.0
20260506120451 24 347 3.2 4.8 0.00 0.00 0.00 34 1016.0
20260506115951 24 326 1.6 3.2 0.00 0.00 0.00 33 1016.0
20260506115451 24 296 3.2 4.8 0.00 0.00 0.00 33 1016.0
20260506114951 25 320 1.6 4.8 0.00 0.00 0.00 32 1016.0
20260506114451 25 314 1.6 3.2 0.00 0.00 0.00 32 1016.0
20260506113952 25 353 1.6 4.8 0.00 0.00 0.00 34 1016.0
20260506113451 25 330 1.6 4.8 0.00 0.00 0.00 32 1016.0
20260506112951 25 293 0.0 3.2 0.00 0.00 0.00 33 1016.0
20260506112451 25 295 3.2 3.2 0.00 0.00 0.00 33 1017.0
20260506111951 25 305 3.2 3.2 0.00 0.00 0.00 33 1017.0
20260506111453 24 299 1.6 3.2 0.00 0.00 0.00 33 1017.0
20260506110951 24 3 0.0 3.2 0.00 0.00 0.00 35 1017.0
20260506110452 24 293 1.6 4.8 0.00 0.00 0.00 35 1017.0
20260506105951 23 29 0.0 3.2 0.00 0.00 0.00 36 1017.0
20260506105453 23 15 3.2 3.2 0.00 0.00 0.00 38 1017.0
20260506104951 23 295 1.6 3.2 0.00 0.00 0.00 37 1017.0
20260506104451 23 280 4.8 4.8 0.00 0.00 0.00 37 1017.0
20260506103951 23 308 1.6 4.8 0.00 0.00 0.00 37 1017.0
20260506103451 22 344 1.6 3.2 0.00 0.00 0.00 38 1017.0
20260506102951 22 311 3.2 4.8 0.00 0.00 0.00 37 1017.0
20260506102451 22 2 3.2 4.8 0.00 0.00 0.00 36 1017.0
20260506101952 23 350 1.6 4.8 0.00 0.00 0.00 36 1017.0
20260506101451 23 333 1.6 3.2 0.00 0.00 0.00 36 1017.0
20260506100951 22 304 1.6 3.2 0.00 0.00 0.00 37 1017.0
20260506100451 22 12 0.0 3.2 0.00 0.00 0.00 38 1017.0
20260506095951 23 309 3.2 6.4 0.00 0.00 0.00 36 1017.0
20260506095451 23 312 0.0 3.2 0.00 0.00 0.00 37 1017.0
20260506094951 22 330 1.6 3.2 0.00 0.00 0.00 37 1017.0
20260506094451 22 300 1.6 4.8 0.00 0.00 0.00 37 1017.0
20260506093951 23 343 3.2 4.8 0.00 0.00 0.00 35 1017.0
20260506093451 23 344 0.0 4.8 0.00 0.00 0.00 37 1017.0
20260506092951 23 353 1.6 3.2 0.00 0.00 0.00 38 1017.0
20260506092451 23 32 1.6 3.2 0.00 0.00 0.00 37 1016.0
20260506091951 23 348 1.6 3.2 0.00 0.00 0.00 37 1016.0
20260506091453 22 352 0.0 3.2 0.00 0.00 0.00 38 1016.0
20260506090952 23 288 0.0 3.2 0.00 0.00 0.00 38 1016.0
20260506090452 22 27 0.0 4.8 0.00 0.00 0.00 39 1016.0
20260506085951 23 10 1.6 4.8 0.00 0.00 0.00 38 1016.0
20260506085452 23 288 1.6 4.8 0.00 0.00 0.00 38 1016.0
20260506084951 23 314 1.6 4.8 0.00 0.00 0.00 37 1016.0
20260506084454 23 288 0.0 4.8 0.00 0.00 0.00 37 1016.0
20260506083951 23 318 0.0 4.8 0.00 0.00 0.00 37 1016.0
20260506083452 23 0 1.6 3.2 0.00 0.00 0.00 37 1016.0
20260506082952 23 358 1.6 3.2 0.00 0.00 0.00 38 1016.0
20260506082451 23 302 0.0 4.8 0.00 0.00 0.00 38 1016.0
20260506081951 23 308 0.0 4.8 0.00 0.00 0.00 38 1016.0
20260506081451 23 355 0.0 6.4 0.00 0.00 0.00 38 1016.0
20260506080951 23 318 1.6 4.8 0.00 0.00 0.00 39 1016.0
20260506080451 23 343 1.6 4.8 0.00 0.00 0.00 39 1016.0
20260506073451 22 255 0.0 3.2 0.00 0.00 0.00 39 1017.0
20260506072951 22 330 3.2 3.2 0.00 0.00 0.00 40 1016.0
20260506072451 22 255 1.6 4.8 0.00 0.00 0.00 40 1016.0
20260506071952 21 283 0.0 3.2 0.00 0.00 0.00 41 1016.0
20260506071451 21 348 1.6 3.2 0.00 0.00 0.00 43 1016.0
20260506070952 21 333 0.0 4.8 0.00 0.00 0.00 44 1016.0
20260506070451 20 13 0.0 3.2 0.00 0.00 0.00 45 1016.0
20260506062452 19 3 0.0 1.6 0.00 0.00 0.00 49 1016.0